Location: Newark
(45.7425°N, 0.7617°W)
Time: 20:47:34
(UTC+00:00)

N. Korean satellite - Pass Details

Date: 30 January 2020
Orbit: 456 x 505 km, 97.2° (Epoch: 22 February)

Event Time Altitude Azimuth Distance (km) Brightness Sun altitude
Rises 06:41:59 0° 0° (N) 2,555 10.1 -8.3°
Reaches altitude 10° 06:44:16 10° 348° (NNW) 1,679 9.0 -7.9°
Maximum altitude 06:47:16 25° 291° (WNW) 1,017 7.6 -7.4°
Drops below altitude 10° 06:50:19 10° 234° (SW) 1,690 9.0 -6.9°
Sets 06:52:37 0° 222° (SW) 2,575 10.0 -6.5°
